Location: Edmonton
(53.5500°N, 113.5000°W)
Time: 21:01:34
(UTC-07:00)

N. Korean satellite - Pass Details

Date: 25 October 2019
Orbit: 456 x 506 km, 97.2° (Epoch: 12 November)

Event Time Altitude Azimuth Distance (km) Brightness Sun altitude
Rises 07:36:34 0° 14° (NNE) 2,570 10.3 -7.0°
Reaches altitude 10° 07:38:38 10° 16° (NNE) 1,692 9.4 -6.7°
Maximum altitude 07:42:17 77° 102° (ESE) 515 6.8 -6.2°
Drops below altitude 10° 07:45:57 10° 190° (S) 1,702 9.4 -5.7°
Sets 07:48:02 0° 192° (SSW) 2,586 10.3 -5.4°
